Columbia, SC

2:25 PM EST on February 26, 2017 (GMT -0500)
Columbia Owens Downtown

Weather History for KCUB - July, 2013

Change the Weather History Date:

Tuesday, July 9, 2013

  Actual Average Record
Temperature  
Mean Temperature 85 °F 83 °F  
Max Temperature 95 °F 93 °F 103 °F (2012)
Min Temperature 74 °F 72 °F 61 °F (2006)
Degree Days  
Heating Degree Days 0 0  
Month to date heating degree days 0 0  
Since 1 June heating degree days 0 0  
Since 1 July heating degree days 0 0  
Cooling Degree Days 20 18  
Month to date cooling degree days 137 155  
Year to date cooling degree days 904 924  
Since 1 June cooling degree days 594 588  
Growing Degree Days 31 (Base 50)    
Moisture  
Dew Point 74 °F    
Average Humidity 85    
Maximum Humidity 100    
Minimum Humidity 64    
Precipitation  
Precipitation 0.95 in 0.20 in 1.70 in (2008)
Month to date precipitation 5.50 1.75  
Year to date precipitation 29.04 23.48  
Sea Level Pressure  
Sea Level Pressure 30.15 in    
Wind  
Wind Speed 2 mph (SSE)    
Max Wind Speed 13 mph    
Max Gust Speed 18 mph    
Visibility 8 miles    
Events Rain    
T = Trace of Precipitation, MM = Missing Value Source: NWS Daily Summary

Daily Weather History Graph

Daily Weather History Graph

Search for Another Location

Airport or City:

Trip Planner

Search our weather history database for the weather conditions in past years. The results will help you decide how hot, cold, wet, or windy it might be!

Date:

Astronomy

Jul. 09, 2013 Rise Set
Actual Time 6:20 AM EDT 8:37 PM EDT
Civil Twilight 5:51 AM EDT 9:06 PM EDT
Nautical Twilight 5:16 AM EDT 9:41 PM EDT
Astronomical Twilight 4:38 AM EDT 10:20 PM EDT
Moon 7:37 AM EDT (7/9) 9:21 PM EDT (7/9)
Length of Visible Light 15h 14m
Length of Day
14h 17m
New Moon, 2% of the Moon is Illuminated
Jul 9
New Moon
Jul 15
First Quarter
Jul 22
Full
Jul 29
Last Quarter
Aug 6
New

Hourly Weather History & Observations

Time (EDT) Temp. Heat Index Dew Point Humidity Pressure Visibility Wind Dir Wind Speed Gust Speed Precip Events Conditions
12:53 AM 78.1 °F - 75.0 °F 90% 30.18 in 10.0 mi SSW 3.5 mph - N/A   Clear
1:53 AM 77.0 °F - 75.0 °F 94% 30.16 in 10.0 mi South 3.5 mph - N/A   Partly Cloudy
2:53 AM 77.0 °F - 73.9 °F 90% 30.15 in 10.0 mi Calm Calm - N/A   Clear
3:53 AM 75.9 °F - 73.9 °F 94% 30.16 in 10.0 mi Calm Calm - N/A   Mostly Cloudy
4:53 AM 75.9 °F - 73.0 °F 91% 30.16 in 10.0 mi SW 3.5 mph - N/A   Scattered Clouds
5:53 AM 75.0 °F - 73.0 °F 94% 30.16 in 10.0 mi Calm Calm - N/A   Clear
6:53 AM 75.0 °F - 73.0 °F 94% 30.17 in 10.0 mi Calm Calm - N/A   Clear
7:53 AM 75.9 °F - 73.0 °F 91% 30.17 in 10.0 mi Calm Calm - N/A   Clear
8:53 AM 79.0 °F - 73.0 °F 82% 30.18 in 10.0 mi Calm Calm - N/A   Clear
9:53 AM 82.9 °F 89.4 °F 73.9 °F 74% 30.18 in 10.0 mi SSW 8.1 mph - N/A   Clear
10:53 AM 84.0 °F 91.2 °F 73.9 °F 72% 30.18 in 10.0 mi Variable 3.5 mph - N/A   Partly Cloudy
11:13 AM 84.2 °F 90.9 °F 73.4 °F 70% 30.19 in 10.0 mi South 6.9 mph - N/A   Mostly Cloudy
11:24 AM 84.2 °F 90.9 °F 73.4 °F 70% 30.19 in 10.0 mi Calm Calm - N/A   Scattered Clouds
11:32 AM 86.0 °F 95.1 °F 75.2 °F 70% 30.19 in 10.0 mi Variable 3.5 mph - N/A   Mostly Cloudy
11:43 AM 86.0 °F 95.1 °F 75.2 °F 70% 30.19 in 10.0 mi South 4.6 mph - N/A   Partly Cloudy
11:53 AM 87.1 °F 96.3 °F 75.0 °F 67% 30.18 in 10.0 mi Variable 3.5 mph - N/A   Scattered Clouds
12:53 PM 89.1 °F 99.1 °F 75.0 °F 63% 30.17 in 10.0 mi SSW 4.6 mph - N/A   Partly Cloudy
1:36 PM 86.0 °F 95.1 °F 75.2 °F 70% 30.17 in 1.8 mi SSE 8.1 mph - 0.01 in Rain Heavy Rain
1:39 PM 82.4 °F 89.5 °F 75.2 °F 79% 30.17 in 0.8 mi SSE 6.9 mph - 0.01 in Rain Heavy Rain
1:53 PM 79.0 °F - 75.0 °F 88% 30.14 in 2.5 mi Calm Calm - 0.06 in Rain Light Rain
2:00 PM 80.6 °F 87.1 °F 77.0 °F 89% 30.15 in 10.0 mi Calm Calm - 0.03 in   Scattered Clouds
2:53 PM 84.9 °F 97.5 °F 79.0 °F 82% 30.11 in 10.0 mi ESE 3.5 mph - 0.25 in   Mostly Cloudy
3:53 PM 81.0 °F 86.2 °F 73.9 °F 79% 30.12 in 10.0 mi ESE 8.1 mph - 0.17 in   Overcast
4:36 PM 77.0 °F - 71.6 °F 83% 30.12 in 1.5 mi ESE 4.6 mph - 0.08 in Rain Heavy Rain
4:40 PM 75.2 °F - 71.6 °F 89% 30.11 in 0.8 mi East 4.6 mph - 0.08 in Rain Heavy Rain
4:48 PM 73.4 °F - 71.6 °F 94% 30.12 in 1.2 mi South 4.6 mph - 0.10 in Rain Heavy Rain
4:53 PM 75.0 °F - 72.0 °F 90% 30.12 in 3.0 mi Calm Calm - 0.11 in Rain Rain
5:53 PM 77.0 °F - 73.9 °F 90% 30.10 in 10.0 mi Calm Calm - 0.12 in   Mostly Cloudy
6:53 PM 77.0 °F - 75.0 °F 94% 30.11 in 10.0 mi Calm Calm - 0.08 in   Partly Cloudy
7:53 PM 77.0 °F - 75.0 °F 94% 30.10 in 9.0 mi Calm Calm - 0.07 in   Clear
8:53 PM 77.0 °F - 75.9 °F 96% 30.11 in 8.0 mi Calm Calm - 0.04 in   Clear
9:53 PM 75.9 °F - 75.0 °F 97% 30.11 in 9.0 mi Calm Calm - 0.03 in   Clear
10:53 PM 75.9 °F - 75.0 °F 97% 30.13 in 8.0 mi Calm Calm - 0.02 in   Clear
11:53 PM 75.9 °F - 75.0 °F 97% 30.13 in 7.0 mi Calm Calm - N/A   Clear